STARLINK-37250, 68609

Orbit data source: Space-Track

STARLINK-37250, 68609 is a payload satellite owned by SpaceX/Seattle (US) in SSO that was launched on Sun, 05 Apr 2026 UTC via an FALCON 9 launch vehicle from the Air Force Western Test Range (AFWTR). Payload-class satellites include a variety of spacecraft equipped with specific instruments for various scientific and technological missions. These include communications satellites like Starlink; space stations such as the ISS; scientific satellites like the Hubble; Earth observation satellites from companies like Planet Labs, Umbra, and HawkEye 360; GPS; miniature CubeSats for education and research; and military/defense satellites.

Loading next visibility...
Identifier
68609, 2026-073H
Orbit
SSO
Country
Flag of USUS
Related business
Manufacturer
SpaceX/Seattle
Mission
Operational spacecraft
Bus & Motor
STARLINK V2MO, Unknown motor
Mass
575 kg wet, ~530 kg dry
Launch date (UTC)
2026-04-05 (3 months ago)
Launch vehicle
FALCON 9
Launch site
Air Force Western Test Range (AFWTR)
Object type
Payload
Rocket body
Debris
Shape & HBR
Unknown shape, 2.9 m
Radar Cross Section
Large (>1 m²)

Expand to show TLE details & history
Last TLE update: 20 hours ago

TLE from 20 hours ago
0 STARLINK-37250
1 68609U 26073H   26171.01987537  .00014291  00000-0  44397-3 0  9991
2 68609  97.2887  10.2812 0001155 103.2152 256.9220 15.33458733 11563
Epoch: 2026-06-20T00:28Z
TLE epoch observation values (Epoch: 2026-06-20T00:28:37.231Z)
Latitude
-0.00002°
Longitude
94.88557°
Altitude
468.793 km
Speed
7.632 km/s
True Right ascension
00h 41m 07s
True Declination
0° 00' 00"
Sunlit
Object was in daylight at epoch
Visualization orbit readout
Latitude
Unknown
Longitude
Unknown
Altitude
Unknown
Speed
Unknown
Apparent Right ascension
Unknown
Apparent Declination
Unknown
Sunlit
N/A
Visualization observer readout
Local Sidereal Time
07:14:58
Azimuth
Unknown
Elevation
Unknown
Doppler factor
Unknown
Orbital elements
Apogee altitude
463.235 km
Perigee altitude
461.655 km
Semi-major axis
6,840.582 km
Eccentricity
0.00012
Inclination
97.2887°
RAAN
10.2812°
Arg. of periapsis
103.2152°
True anomaly
256.90911°
Mean anomaly
256.922°
Eccentric anomaly
256.91555°
Mean motion
3.83622 °/min
Orbital period
93.84 mins
BSTAR
0.00044397
Loading maneuver chart data...
Computing Atmospheric mass density...
Loading historical data...
Loading historical data...
Loading historical data...
Loading historical data...
Loading historical data...
Loading historical data...
Loading historical data...

Documentation

Showing up to 5 results
|